Location: New Plymouth
(39.0670°S, 174.0830°E)
Time: 05:58:10
(UTC+12:00)

Nimbus 7 Rocket - Pass Details

Date: 24 January 2019
Orbit: 923 x 964 km, 99.5° (Epoch: 22 April)

Event Time Altitude Azimuth Distance (km) Brightness Sun altitude
Exits shadow 22:38:40 31° 38° (NE) 1,592 5.0 -18.5°
Maximum altitude 22:41:34 64° 108° (ESE) 1,040 4.5 -18.9°
Drops below altitude 10° 22:47:31 10° 188° (S) 2,692 7.6 -19.7°
Sets 22:50:00 0° 190° (S) 3,650 8.5 -20.0°
